IBE832 LEZL-GCLP

Flight info

Callsign IBE832
Flight time N/A
Altitude 35000
Route CLANA N857 KORNO UN857 TERTO
Aircraft A321/M-SDE3FGHIRWY/LB1

Departure

Time 2026-04-27 16:15
Airport Seville Airport (LEZL)

Arrival

Time N/A
Airport Gran Canaria Airport (GCLP)
Time Latitude Longitude Altitude Speed Heading
2026-04-27 16:00 37.42213 -5.89946 94 ft 0 kts 314°
2026-04-27 16:08 37.42206 -5.89936 94 ft 3 kts 314°
2026-04-27 16:08 37.42193 -5.89919 95 ft 3 kts 314°
2026-04-27 16:09 37.42179 -5.89902 95 ft 3 kts 304°
2026-04-27 16:09 37.42179 -5.89870 93 ft 0 kts 235°
2026-04-27 16:10 37.42168 -5.89888 104 ft 2 kts 229°
2026-04-27 16:11 37.42157 -5.89901 101 ft 3 kts 220°
2026-04-27 16:11 37.42015 -5.90080 95 ft 16 kts 228°
2026-04-27 16:12 37.41977 -5.90315 95 ft 13 kts 271°
2026-04-27 16:12 37.41979 -5.90422 94 ft 12 kts 271°
2026-04-27 16:12 37.41979 -5.90649 93 ft 20 kts 269°
2026-04-27 16:13 37.41978 -5.90840 91 ft 22 kts 270°
2026-04-27 16:13 37.41974 -5.91203 89 ft 15 kts 268°
2026-04-27 16:13 37.41943 -5.91298 89 ft 12 kts 219°
2026-04-27 16:14 37.41840 -5.91241 90 ft 8 kts 125°
2026-04-27 16:14 37.41787 -5.90890 95 ft 59 kts 90°
2026-04-27 16:15 37.41796 -5.88928 104 ft 156 kts 90°
2026-04-27 16:15 37.41793 -5.86186 1173 ft 156 kts 90°
2026-04-27 16:16 37.41727 -5.83688 1527 ft 189 kts 94°
2026-04-27 16:16 37.39942 -5.81293 2210 ft 222 kts 174°
2026-04-27 16:17 37.37588 -5.83524 3312 ft 236 kts 255°
2026-04-27 16:17 37.36141 -5.88028 4142 ft 257 kts 215°
2026-04-27 16:18 37.33706 -5.90264 5075 ft 266 kts 214°
2026-04-27 16:18 37.30662 -5.93148 6321 ft 279 kts 217°
2026-04-27 16:19 37.29132 -5.94656 7024 ft 280 kts 218°
2026-04-27 16:19 37.27610 -5.96180 7764 ft 280 kts 219°
2026-04-27 16:20 37.23055 -6.00777 9943 ft 281 kts 220°
2026-04-27 16:20 37.21527 -6.02319 10280 ft 295 kts 219°
2026-04-27 16:20 37.18115 -6.05762 10555 ft 332 kts 219°
2026-04-27 16:21 37.16288 -6.07603 10974 ft 340 kts 219°
2026-04-27 16:21 37.10674 -6.13247 12656 ft 349 kts 219°
2026-04-27 16:22 37.08768 -6.15163 13214 ft 353 kts 218°
2026-04-27 16:22 37.04928 -6.19020 14395 ft 353 kts 218°
2026-04-27 16:22 37.03027 -6.20928 14902 ft 355 kts 218°
2026-04-27 16:23 37.01089 -6.22868 15365 ft 358 kts 218°
2026-04-27 16:23 36.97157 -6.26800 16255 ft 365 kts 218°
2026-04-27 16:23 36.95163 -6.28792 16679 ft 369 kts 218°
2026-04-27 16:24 36.93148 -6.30805 17120 ft 372 kts 218°
2026-04-27 16:24 36.89067 -6.34886 17970 ft 379 kts 218°
2026-04-27 16:25 36.84917 -6.39023 18683 ft 384 kts 218°
2026-04-27 16:25 36.80714 -6.43200 19385 ft 388 kts 218°
2026-04-27 16:26 36.76474 -6.47406 20093 ft 390 kts 218°
2026-04-27 16:26 36.72215 -6.51622 20687 ft 396 kts 218°
2026-04-27 16:27 36.67872 -6.55927 21338 ft 401 kts 217°
2026-04-27 16:27 36.61275 -6.62443 22357 ft 407 kts 217°
2026-04-27 16:28 36.56816 -6.66852 23033 ft 411 kts 217°
2026-04-27 16:28 36.52317 -6.71288 23706 ft 415 kts 217°
2026-04-27 16:29 36.45556 -6.78104 24601 ft 419 kts 219°
2026-04-27 16:30 36.41079 -6.82776 25187 ft 422 kts 219°
2026-04-27 16:30 36.36551 -6.87469 25721 ft 426 kts 219°
2026-04-27 16:31 36.29668 -6.94531 26536 ft 430 kts 218°
2026-04-27 16:31 36.25051 -6.99259 27159 ft 431 kts 218°
2026-04-27 16:32 36.20425 -7.03993 27706 ft 434 kts 218°
2026-04-27 16:32 36.18120 -7.06344 27946 ft 435 kts 218°
2026-04-27 16:33 36.13410 -7.11153 28407 ft 438 kts 218°
2026-04-27 16:33 36.11061 -7.13555 28669 ft 438 kts 218°
2026-04-27 16:33 36.08740 -7.15923 28901 ft 439 kts 218°
2026-04-27 16:33 36.06374 -7.18326 29066 ft 441 kts 218°
2026-04-27 16:34 36.04000 -7.20732 29300 ft 441 kts 218°
2026-04-27 16:34 36.01624 -7.23138 29463 ft 443 kts 218°
2026-04-27 16:34 35.99236 -7.25557 29624 ft 444 kts 218°
2026-04-27 16:34 35.96848 -7.27980 29866 ft 444 kts 218°
2026-04-27 16:35 35.94463 -7.30402 30049 ft 445 kts 218°
2026-04-27 16:35 35.92077 -7.32824 30257 ft 444 kts 218°
2026-04-27 16:35 35.87320 -7.37640 30683 ft 443 kts 218°
2026-04-27 16:36 35.84940 -7.40045 30922 ft 441 kts 218°
2026-04-27 16:36 35.82573 -7.42436 31142 ft 441 kts 218°
2026-04-27 16:36 35.80196 -7.44826 31316 ft 441 kts 218°
2026-04-27 16:36 35.77820 -7.47203 31576 ft 439 kts 218°
2026-04-27 16:37 35.75442 -7.49569 31761 ft 440 kts 218°
2026-04-27 16:37 35.73063 -7.51929 31966 ft 439 kts 218°
2026-04-27 16:37 35.70689 -7.54280 32222 ft 437 kts 218°
2026-04-27 16:37 35.68322 -7.56631 32415 ft 438 kts 218°
2026-04-27 16:38 35.65958 -7.58983 32646 ft 436 kts 218°
2026-04-27 16:38 35.63601 -7.61331 32888 ft 436 kts 218°
2026-04-27 16:38 35.61243 -7.63682 33065 ft 436 kts 218°
2026-04-27 16:38 35.58888 -7.66025 33323 ft 434 kts 218°
2026-04-27 16:39 35.56571 -7.68317 33514 ft 434 kts 218°
2026-04-27 16:39 35.54216 -7.70645 33699 ft 434 kts 218°
2026-04-27 16:39 35.51874 -7.72965 33941 ft 432 kts 218°
2026-04-27 16:39 35.49527 -7.75290 34087 ft 433 kts 218°
2026-04-27 16:40 35.47180 -7.77612 34199 ft 434 kts 218°
2026-04-27 16:40 35.44827 -7.79935 34347 ft 434 kts 218°
2026-04-27 16:40 35.42477 -7.82254 34486 ft 434 kts 218°
2026-04-27 16:40 35.40125 -7.84578 34650 ft 434 kts 218°
2026-04-27 16:41 35.37782 -7.86912 34828 ft 433 kts 218°
2026-04-27 16:41 35.33142 -7.91567 34879 ft 429 kts 218°
2026-04-27 16:42 35.28558 -7.96158 34874 ft 428 kts 218°
2026-04-27 16:42 35.23942 -8.00763 34874 ft 428 kts 218°
2026-04-27 16:43 35.19317 -8.05358 34874 ft 429 kts 218°
2026-04-27 16:43 35.14684 -8.09954 34871 ft 429 kts 218°
2026-04-27 16:44 35.10049 -8.14551 34870 ft 429 kts 218°
2026-04-27 16:44 35.05421 -8.19140 34866 ft 429 kts 218°
2026-04-27 16:45 35.00780 -8.23723 34861 ft 428 kts 218°
2026-04-27 16:45 34.96180 -8.28269 34856 ft 428 kts 218°
2026-04-27 16:46 34.91549 -8.32838 34856 ft 428 kts 218°
2026-04-27 16:46 34.86916 -8.37402 34862 ft 428 kts 218°
2026-04-27 16:47 34.82276 -8.41964 34858 ft 429 kts 218°
2026-04-27 16:47 34.77626 -8.46530 34856 ft 429 kts 218°
2026-04-27 16:48 34.72975 -8.51094 34855 ft 430 kts 218°
2026-04-27 16:48 34.68316 -8.55652 34856 ft 430 kts 218°
2026-04-27 16:49 34.61322 -8.62493 34855 ft 430 kts 217°
2026-04-27 16:49 34.56647 -8.67041 34862 ft 431 kts 217°
2026-04-27 16:50 34.51971 -8.71589 34864 ft 431 kts 217°
2026-04-27 16:50 34.47295 -8.76138 34868 ft 431 kts 217°
2026-04-27 16:51 34.42643 -8.80656 34866 ft 431 kts 217°
2026-04-27 16:51 34.37940 -8.85181 34860 ft 432 kts 217°
2026-04-27 16:52 34.33233 -8.89694 34860 ft 432 kts 217°
2026-04-27 16:52 34.28519 -8.94214 34862 ft 432 kts 217°
2026-04-27 16:53 34.23801 -8.98739 34865 ft 433 kts 217°
2026-04-27 16:53 34.19082 -9.03259 34864 ft 433 kts 217°
2026-04-27 16:54 34.14358 -9.07771 34866 ft 433 kts 217°
2026-04-27 16:54 34.09630 -9.12272 34875 ft 433 kts 217°
2026-04-27 16:55 34.04891 -9.16776 34863 ft 434 kts 217°
2026-04-27 16:55 34.00143 -9.21296 34864 ft 435 kts 217°
2026-04-27 16:56 33.95389 -9.25809 34868 ft 435 kts 217°
2026-04-27 16:56 33.90627 -9.30322 34871 ft 435 kts 217°
2026-04-27 16:57 33.85865 -9.34831 34865 ft 435 kts 217°
2026-04-27 16:57 33.81136 -9.39314 34868 ft 435 kts 217°
2026-04-27 16:58 33.76380 -9.43814 34866 ft 435 kts 217°
2026-04-27 16:58 33.71611 -9.48306 34871 ft 436 kts 217°
2026-04-27 16:59 33.66835 -9.52797 34866 ft 436 kts 217°
2026-04-27 16:59 33.62059 -9.57288 34871 ft 437 kts 217°